| time (UTC) | temp F | wind direction | speed knots | gust knots | rain 1hr in | rain 24hr in | rain mn in | humidity % | barometer mb |
| 20260504220056 | 84 | 0 | 0.0 | 7.8 | 0.00 | 0.00 | 0.00 | 14 | 1001.7 |
| 20260504214549 | 84 | 0 | 0.0 | 0.0 | 0.00 | 0.00 | 0.00 | 14 | 1001.7 |
| 20260504213055 | 84 | 0 | 3.5 | 9.6 | 0.00 | 0.00 | 0.00 | 14 | 1001.7 |
| 20260504211633 | 84 | 360 | 5.2 | 11.3 | 0.00 | 0.00 | 0.00 | 14 | 1001.8 |
| 20260504210053 | 85 | 360 | 7.8 | 13.9 | 0.00 | 0.00 | 0.00 | 14 | 1002.0 |
| 20260504204549 | 86 | 0 | 0.0 | 0.9 | 0.00 | 0.00 | 0.00 | 13 | 1001.9 |
| 20260504203046 | 87 | 360 | 2.6 | 23.5 | 0.00 | 0.00 | 0.00 | 13 | 1002.2 |
| 20260504201555 | 85 | 0 | 7.0 | 10.4 | 0.00 | 0.00 | 0.00 | 13 | 1002.4 |
| 20260504200052 | 85 | 360 | 7.8 | 12.2 | 0.00 | 0.00 | 0.00 | 13 | 1002.6 |
| 20260504194555 | 84 | 360 | 3.5 | 10.4 | 0.00 | 0.00 | 0.00 | 14 | 1002.8 |
| 20260504193056 | 84 | 0 | 0.9 | 8.7 | 0.00 | 0.00 | 0.00 | 14 | 1002.9 |
| 20260504191607 | 84 | 360 | 7.0 | 13.0 | 0.00 | 0.00 | 0.00 | 15 | 1003.0 |
| 20260504190104 | 84 | 0 | 0.0 | 1.7 | 0.00 | 0.00 | 0.00 | 15 | 1002.9 |
| 20260504184554 | 83 | 0 | 0.9 | 14.8 | 0.00 | 0.00 | 0.00 | 15 | 1003.1 |
| 20260504183049 | 83 | 360 | 6.1 | 13.0 | 0.00 | 0.00 | 0.00 | 15 | 1003.1 |
| 20260504181558 | 82 | 0 | 0.9 | 11.3 | 0.00 | 0.00 | 0.00 | 16 | 1003.5 |
| 20260504180046 | 82 | 0 | 0.0 | 7.8 | 0.00 | 0.00 | 0.00 | 17 | 1003.7 |
| 20260504174552 | 81 | 360 | 0.0 | 13.0 | 0.00 | 0.00 | 0.00 | 18 | 1003.8 |
| 20260504173055 | 81 | 360 | 7.0 | 12.2 | 0.00 | 0.00 | 0.00 | 19 | 1003.8 |
| 20260504171550 | 80 | 360 | 1.7 | 10.4 | 0.00 | 0.00 | 0.00 | 20 | 1003.9 |
| 20260504081554 | 46 | 0 | 0.0 | 0.0 | 0.00 | 0.00 | 0.00 | 70 | 1004.9 |
| 20260504050111 | 56 | 0 | 0.0 | 0.0 | 0.00 | 0.00 | 0.00 | 50 | 1007.0 |
| 20260504044555 | 59 | 0 | 0.0 | 0.0 | 0.00 | 0.00 | 0.00 | 45 | 1007.0 |
| 20260504043058 | 60 | 0 | 0.0 | 0.0 | 0.00 | 0.00 | 0.00 | 44 | 1006.9 |
| 20260504041551 | 61 | 0 | 0.0 | 0.0 | 0.00 | 0.00 | 0.00 | 43 | 1007.2 |
| 20260504040131 | 61 | 0 | 0.0 | 4.3 | 0.00 | 0.00 | 0.00 | 43 | 1007.5 |
| 20260504034556 | 62 | 0 | 0.0 | 4.3 | 0.00 | 0.00 | 0.00 | 42 | 1007.5 |
| 20260504033052 | 62 | 0 | 0.0 | 0.0 | 0.00 | 0.00 | 0.00 | 42 | 1007.4 |
| 20260504031601 | 64 | 0 | 0.0 | 0.9 | 0.00 | 0.00 | 0.00 | 40 | 1007.4 |
| 20260504030053 | 65 | 0 | 0.0 | 3.5 | 0.00 | 0.00 | 0.00 | 38 | 1007.6 |
| 20260504024553 | 66 | 0 | 0.0 | 0.0 | 0.00 | 0.00 | 0.00 | 37 | 1007.3 |
| 20260504023053 | 67 | 0 | 0.0 | 0.0 | 0.00 | 0.00 | 0.00 | 36 | 1007.3 |
| 20260504021548 | 69 | 0 | 0.0 | 0.0 | 0.00 | 0.00 | 0.00 | 35 | 1007.3 |
| 20260504020106 | 70 | 0 | 0.0 | 0.0 | 0.00 | 0.00 | 0.00 | 33 | 1007.3 |
| 20260504014554 | 71 | 0 | 0.0 | 0.9 | 0.00 | 0.00 | 0.00 | 32 | 1007.3 |
| 20260504013048 | 72 | 0 | 1.7 | 7.0 | 0.00 | 0.00 | 0.00 | 31 | 1007.0 |
| 20260504011544 | 73 | 0 | 0.0 | 4.3 | 0.00 | 0.00 | 0.00 | 29 | 1007.1 |
| 20260504010055 | 75 | 0 | 0.9 | 7.0 | 0.00 | 0.00 | 0.00 | 27 | 1007.3 |
| 20260504004551 | 75 | 360 | 0.0 | 8.7 | 0.00 | 0.00 | 0.00 | 26 | 1007.3 |
| 20260504003046 | 76 | 0 | 3.5 | 9.6 | 0.00 | 0.00 | 0.00 | 25 | 1007.5 |
| 20260504001553 | 77 | 360 | 3.5 | 10.4 | 0.00 | 0.00 | 0.00 | 24 | 1007.6 |
| 20260504000050 | 78 | 360 | 6.1 | 10.4 | 0.00 | 0.00 | 0.00 | 23 | 1007.3 |
| 20260503234620 | 78 | 360 | 6.1 | 9.6 | 0.00 | 0.00 | 0.00 | 22 | 1007.3 |
| 20260503233050 | 78 | 360 | 6.1 | 10.4 | 0.00 | 0.00 | 0.00 | 22 | 1007.3 |
| 20260503231552 | 78 | 360 | 5.2 | 8.7 | 0.00 | 0.00 | 0.00 | 22 | 1007.5 |
| 20260503230108 | 79 | 360 | 7.0 | 10.4 | 0.00 | 0.00 | 0.00 | 21 | 1007.5 |
| 20260503224556 | 79 | 360 | 3.5 | 8.7 | 0.00 | 0.00 | 0.00 | 20 | 1007.6 |
| 20260503223054 | 80 | 0 | 1.7 | 7.8 | 0.00 | 0.00 | 0.00 | 20 | 1007.7 |
| 20260503221601 | 79 | 360 | 3.5 | 13.0 | 0.00 | 0.00 | 0.00 | 20 | 1008.0 |